STARLINK-32321, 61065

Orbit data source: Space-Track

STARLINK-32321, 61065 is a payload satellite owned by SpaceX/Seattle (US) in LEO that was launched on Fri, 13 Sep 2024 UTC via an FALCON 9 launch vehicle from the Air Force Western Test Range (AFWTR). Payload-class satellites include a variety of spacecraft equipped with specific instruments for various scientific and technological missions. These include communications satellites like Starlink; space stations such as the ISS; scientific satellites like the Hubble; Earth observation satellites from companies like Planet Labs, Umbra, and HawkEye 360; GPS; miniature CubeSats for education and research; and military/defense satellites.

Loading next visibility...
Identifier
61065, 2024-164R
Orbit
LEO
Country
Flag of USUS
Related business
Manufacturer
SpaceX/Seattle
Mission
Operational Commercial Communications
Bus & Motor
STARLINK V2M, Unknown motor
Mass
730 kg wet, ~700 kg dry
Launch date (UTC)
2024-09-13 (2 years ago)
Launch vehicle
FALCON 9
Launch site
Air Force Western Test Range (AFWTR)
Object type
Payload
Rocket body
Debris
Shape & HBR
Box + 2 Pan, 17.7 m
Radar Cross Section
33.884 m², Large (>1 m²)

Expand to show TLE details & history
Last TLE update: 9 hours ago

TLE from 9 hours ago
0 STARLINK-32321
1 61065U 24164R   26171.48053856 -.00003444  00000-0 -10433-3 0  9992
2 61065  53.1613 333.7895 0001389 113.7611 246.3535 15.30165865 99217
Epoch: 2026-06-20T11:31Z
TLE epoch observation values (Epoch: 2026-06-20T11:31:58.531Z)
Latitude
-0.00007°
Longitude
-107.89899°
Altitude
476.599 km
Speed
7.628 km/s
True Right ascension
22h 15m 09s
True Declination
0° 00' 00"
Sunlit
Object was in full shadow at epoch
Visualization orbit readout
Latitude
Unknown
Longitude
Unknown
Altitude
Unknown
Speed
Unknown
Apparent Right ascension
Unknown
Apparent Declination
Unknown
Sunlit
N/A
Visualization observer readout
Local Sidereal Time
07:16:23
Azimuth
Unknown
Elevation
Unknown
Doppler factor
Unknown
Orbital elements
Apogee altitude
476.525 km
Perigee altitude
474.621 km
Semi-major axis
6,853.71 km
Eccentricity
0.00014
Inclination
53.1613°
RAAN
333.7895°
Arg. of periapsis
113.7611°
True anomaly
246.33892°
Mean anomaly
246.3535°
Eccentric anomaly
246.34621°
Mean motion
3.8252 °/min
Orbital period
94.11 mins
BSTAR
-0.00010433
Loading maneuver chart data...
Computing Atmospheric mass density...
Loading historical data...
Loading historical data...
Loading historical data...
Loading historical data...
Loading historical data...
Loading historical data...
Loading historical data...

Documentation

Showing up to 5 results
|